Time,TemperatureF,DewpointF,PressureIn,WindDirection,WindDirectionDegrees,WindSpeedMPH,WindSpeedGustMPH,Humidity,HourlyPrecipIn,Conditions,Clouds,dailyrainin,SoftwareType,DateUTC
2013-04-21 00:09:00,28.8,21.6,30.00,WSW,253,0.0,0.0,74,0.00,,,0.00,Wunderground v.1.15,2013-04-21 06:09:00,
2013-04-21 00:14:00,28.6,21.4,30.00,WSW,253,0.0,0.0,74,0.00,,,0.00,Wunderground v.1.15,2013-04-21 06:14:00,
2013-04-21 00:19:00,28.6,21.4,30.00,WSW,253,0.0,0.0,74,0.00,,,0.00,Wunderground v.1.15,2013-04-21 06:19:00,
2013-04-21 00:29:00,28.4,21.5,30.00,WSW,253,0.0,0.0,75,0.00,,,0.00,Wunderground v.1.15,2013-04-21 06:29:00,
2013-04-21 00:39:00,28.2,21.3,30.00,WSW,253,0.0,0.0,75,0.00,,,0.00,Wunderground v.1.15,2013-04-21 06:39:00,
2013-04-21 00:44:00,28.1,21.5,30.00,WSW,253,0.0,0.0,76,0.00,,,0.00,Wunderground v.1.15,2013-04-21 06:44:00,
2013-04-21 00:49:00,28.0,21.4,30.00,WSW,253,0.0,0.0,76,0.00,,,0.00,Wunderground v.1.15,2013-04-21 06:49:00,
2013-04-21 00:54:00,27.9,21.3,30.00,WSW,253,0.0,0.0,76,0.00,,,0.00,Wunderground v.1.15,2013-04-21 06:54:00,
2013-04-21 00:59:00,27.9,21.6,30.00,WSW,253,0.0,0.0,77,0.00,,,0.00,Wunderground v.1.15,2013-04-21 06:59:00,
2013-04-21 01:09:00,27.8,21.5,30.00,WSW,253,0.0,0.0,77,0.00,,,0.00,Wunderground v.1.15,2013-04-21 07:09:00,
2013-04-21 01:14:00,27.7,21.7,30.00,WSW,253,0.0,0.0,78,0.00,,,0.00,Wunderground v.1.15,2013-04-21 07:14:00,
2013-04-21 01:19:00,27.8,21.8,30.00,WSW,253,0.0,0.0,78,0.00,,,0.00,Wunderground v.1.15,2013-04-21 07:19:00,
2013-04-21 01:24:00,27.8,21.8,30.00,WSW,253,0.0,0.0,78,0.00,,,0.00,Wunderground v.1.15,2013-04-21 07:24:00,
2013-04-21 01:29:00,27.7,22.0,30.00,WSW,253,0.0,0.0,79,0.00,,,0.00,Wunderground v.1.15,2013-04-21 07:29:00,
2013-04-21 01:39:00,27.5,21.8,30.00,WSW,253,0.0,0.0,79,0.00,,,0.00,Wunderground v.1.15,2013-04-21 07:39:00,
2013-04-21 01:44:00,27.5,21.8,30.00,WSW,253,0.0,0.0,79,0.00,,,0.00,Wunderground v.1.15,2013-04-21 07:44:00,
2013-04-21 01:49:00,27.4,21.7,30.00,WSW,253,0.0,0.0,79,0.00,,,0.00,Wunderground v.1.15,2013-04-21 07:49:00,
2013-04-21 01:54:00,27.4,22.0,30.00,WSW,253,0.0,0.0,80,0.00,,,0.00,Wunderground v.1.15,2013-04-21 07:54:00,
2013-04-21 01:59:00,27.4,22.0,30.00,WSW,253,0.0,0.0,80,0.00,,,0.00,Wunderground v.1.15,2013-04-21 07:59:00,
2013-04-21 02:09:00,27.2,21.8,30.00,WSW,253,0.0,0.0,80,0.00,,,0.00,Wunderground v.1.15,2013-04-21 08:09:00,
2013-04-21 02:19:00,27.1,22.0,30.00,WSW,253,0.0,0.0,81,0.00,,,0.00,Wunderground v.1.15,2013-04-21 08:19:00,
2013-04-21 02:29:00,26.9,21.8,30.00,WSW,253,0.0,0.0,81,0.00,,,0.00,Wunderground v.1.15,2013-04-21 08:29:00,
2013-04-21 02:39:00,26.7,21.7,30.01,WSW,253,0.0,0.0,81,0.00,,,0.00,Wunderground v.1.15,2013-04-21 08:39:00,
2013-04-21 02:44:00,26.7,21.9,30.01,WSW,253,0.0,0.0,82,0.00,,,0.00,Wunderground v.1.15,2013-04-21 08:44:00,
2013-04-21 02:49:00,26.7,21.9,30.01,WSW,253,0.0,0.0,82,0.00,,,0.00,Wunderground v.1.15,2013-04-21 08:49:00,
2013-04-21 02:54:00,26.7,21.9,30.01,WSW,253,0.0,0.0,82,0.00,,,0.00,Wunderground v.1.15,2013-04-21 08:54:00,
2013-04-21 02:59:00,26.6,21.6,30.01,WSW,253,0.0,0.0,81,0.00,,,0.00,Wunderground v.1.15,2013-04-21 08:59:00,
2013-04-21 03:09:00,26.6,21.8,30.01,WSW,253,0.0,0.0,82,0.00,,,0.00,Wunderground v.1.15,2013-04-21 09:09:00,
2013-04-21 03:14:00,26.5,21.7,30.02,WSW,253,0.0,0.0,82,0.00,,,0.00,Wunderground v.1.15,2013-04-21 09:14:00,
2013-04-21 03:19:00,26.5,21.7,30.02,WSW,253,0.0,0.0,82,0.00,,,0.00,Wunderground v.1.15,2013-04-21 09:19:00,
2013-04-21 03:29:00,26.4,21.7,30.02,WSW,253,0.0,0.0,82,0.00,,,0.00,Wunderground v.1.15,2013-04-21 09:29:00,
2013-04-21 03:39:00,26.2,21.7,30.02,WSW,253,0.0,0.0,83,0.00,,,0.00,Wunderground v.1.15,2013-04-21 09:39:00,
2013-04-21 03:44:00,26.2,21.7,30.02,WSW,253,0.0,0.0,83,0.00,,,0.00,Wunderground v.1.15,2013-04-21 09:44:00,
2013-04-21 03:49:00,26.1,21.6,30.02,WSW,253,0.0,0.0,83,0.00,,,0.00,Wunderground v.1.15,2013-04-21 09:49:00,
2013-04-21 03:54:00,26.1,21.6,30.02,WSW,253,0.0,0.0,83,0.00,,,0.00,Wunderground v.1.15,2013-04-21 09:54:00,
2013-04-21 03:59:00,26.1,21.6,30.02,WSW,253,0.0,0.0,83,0.00,,,0.00,Wunderground v.1.15,2013-04-21 09:59:00,
2013-04-21 04:09:00,25.9,21.4,30.02,WSW,253,0.0,0.0,83,0.00,,,0.00,Wunderground v.1.15,2013-04-21 10:09:00,
2013-04-21 04:14:00,25.9,21.4,30.02,WSW,253,0.0,0.0,83,0.00,,,0.00,Wunderground v.1.15,2013-04-21 10:14:00,
2013-04-21 04:19:00,25.8,21.3,30.02,WSW,253,0.0,0.0,83,0.00,,,0.00,Wunderground v.1.15,2013-04-21 10:19:00,
2013-04-21 04:24:00,25.8,21.3,30.02,WSW,253,0.0,0.0,83,0.00,,,0.00,Wunderground v.1.15,2013-04-21 10:24:00,
2013-04-21 04:29:00,25.7,21.3,30.02,WSW,253,0.0,0.0,83,0.00,,,0.00,Wunderground v.1.15,2013-04-21 10:29:00,
2013-04-21 04:39:00,25.8,21.3,30.03,WSW,253,0.0,0.0,83,0.00,,,0.00,Wunderground v.1.15,2013-04-21 10:39:00,
2013-04-21 04:49:00,25.8,21.3,30.03,WSW,253,0.0,0.0,83,0.00,,,0.00,Wunderground v.1.15,2013-04-21 10:49:00,
2013-04-21 04:54:00,25.7,21.3,30.03,WSW,253,0.0,0.0,83,0.00,,,0.00,Wunderground v.1.15,2013-04-21 10:54:00,
2013-04-21 04:59:00,25.5,21.1,30.03,WSW,253,0.0,0.0,83,0.00,,,0.00,Wunderground v.1.15,2013-04-21 10:59:00,
2013-04-21 05:09:00,25.4,21.0,30.04,WSW,253,0.0,0.0,83,0.00,,,0.00,Wunderground v.1.15,2013-04-21 11:09:00,
2013-04-21 05:19:00,25.5,21.3,30.04,WSW,253,0.0,0.0,84,0.00,,,0.00,Wunderground v.1.15,2013-04-21 11:19:00,
2013-04-21 05:24:00,25.4,21.0,30.04,WSW,253,0.0,0.0,83,0.00,,,0.00,Wunderground v.1.15,2013-04-21 11:24:00,
2013-04-21 05:29:00,25.5,21.3,30.04,WSW,253,0.0,0.0,84,0.00,,,0.00,Wunderground v.1.15,2013-04-21 11:29:00,
2013-04-21 05:39:00,25.4,21.2,30.05,WSW,253,0.0,0.0,84,0.00,,,0.00,Wunderground v.1.15,2013-04-21 11:39:00,
2013-04-21 05:44:00,25.4,21.2,30.05,WSW,253,0.0,0.0,84,0.00,,,0.00,Wunderground v.1.15,2013-04-21 11:44:00,
2013-04-21 05:54:00,25.3,21.1,30.05,WSW,253,0.0,0.0,84,0.00,,,0.00,Wunderground v.1.15,2013-04-21 11:54:00,
2013-04-21 05:59:00,25.3,21.4,30.05,WSW,253,0.0,0.0,85,0.00,,,0.00,Wunderground v.1.15,2013-04-21 11:59:00,
2013-04-21 06:09:00,25.3,21.1,30.06,WSW,253,0.0,0.0,84,0.00,,,0.00,Wunderground v.1.15,2013-04-21 12:09:00,
2013-04-21 06:14:00,25.3,21.1,30.06,WSW,253,0.0,0.0,84,0.00,,,0.00,Wunderground v.1.15,2013-04-21 12:14:00,
2013-04-21 06:24:00,25.2,21.3,30.07,WSW,253,0.0,0.0,85,0.00,,,0.00,Wunderground v.1.15,2013-04-21 12:24:00,
2013-04-21 06:34:00,25.2,21.0,30.07,WSW,253,0.0,0.0,84,0.00,,,0.00,Wunderground v.1.15,2013-04-21 12:34:00,
2013-04-21 06:44:00,25.2,21.3,30.07,WSW,253,0.0,0.0,85,0.00,,,0.00,Wunderground v.1.15,2013-04-21 12:44:00,
2013-04-21 06:49:00,25.2,21.0,30.08,WSW,253,0.0,0.0,84,0.00,,,0.00,Wunderground v.1.15,2013-04-21 12:49:00,
2013-04-21 06:54:00,25.3,21.4,30.08,WSW,253,0.0,0.0,85,0.00,,,0.00,Wunderground v.1.15,2013-04-21 12:54:00,
2013-04-21 06:59:00,25.4,21.5,30.08,WSW,253,0.0,0.0,85,0.00,,,0.00,Wunderground v.1.15,2013-04-21 12:59:00,
2013-04-21 07:09:00,25.4,21.2,30.08,WSW,253,0.0,0.0,84,0.00,,,0.00,Wunderground v.1.15,2013-04-21 13:09:00,
2013-04-21 07:14:00,25.4,21.5,30.09,WSW,253,0.0,0.0,85,0.00,,,0.00,Wunderground v.1.15,2013-04-21 13:14:00,
2013-04-21 07:19:00,25.4,21.5,30.09,WSW,253,0.0,0.0,85,0.00,,,0.00,Wunderground v.1.15,2013-04-21 13:19:00,
2013-04-21 07:24:00,25.5,21.6,30.09,WSW,253,0.0,0.0,85,0.00,,,0.00,Wunderground v.1.15,2013-04-21 13:24:00,
2013-04-21 07:34:00,25.7,21.8,30.09,WSW,253,0.0,0.0,85,0.00,,,0.00,Wunderground v.1.15,2013-04-21 13:34:00,
2013-04-21 07:44:00,25.7,21.8,30.09,WSW,253,0.0,0.0,85,0.00,,,0.00,Wunderground v.1.15,2013-04-21 13:44:00,
2013-04-21 07:49:00,25.8,21.9,30.09,WSW,253,0.0,0.0,85,0.00,,,0.00,Wunderground v.1.15,2013-04-21 13:49:00,
2013-04-21 07:54:00,25.8,21.6,30.09,WSW,253,0.0,0.0,84,0.00,,,0.00,Wunderground v.1.15,2013-04-21 13:54:00,
2013-04-21 07:59:00,26.1,21.9,30.09,WSW,253,0.0,0.0,84,0.00,,,0.00,Wunderground v.1.15,2013-04-21 13:59:00,
2013-04-21 08:09:00,26.3,21.8,30.09,WSW,253,0.0,0.0,83,0.00,,,0.00,Wunderground v.1.15,2013-04-21 14:09:00,
2013-04-21 08:14:00,26.7,21.9,30.10,WSW,253,0.0,0.0,82,0.00,,,0.00,Wunderground v.1.15,2013-04-21 14:14:00,
2013-04-21 08:24:00,28.9,22.9,30.10,WSW,253,0.0,0.0,78,0.00,,,0.00,Wunderground v.1.15,2013-04-21 14:24:00,
2013-04-21 08:29:00,31.9,23.6,30.10,WSW,253,0.0,0.0,71,0.00,,,0.00,Wunderground v.1.15,2013-04-21 14:29:00,
2013-04-21 08:39:00,38.0,23.3,30.11,NNW,336,2.0,5.0,55,0.00,,,0.00,Wunderground v.1.15,2013-04-21 14:39:00,
2013-04-21 08:44:00,40.0,22.8,30.11,North,355,3.0,7.0,50,0.00,,,0.00,Wunderground v.1.15,2013-04-21 14:44:00,
2013-04-21 08:49:00,40.9,22.7,30.11,NW,325,4.0,6.0,48,0.00,,,0.00,Wunderground v.1.15,2013-04-21 14:49:00,
2013-04-21 08:54:00,41.1,21.9,30.11,NNW,337,5.0,6.0,46,0.00,,,0.00,Wunderground v.1.15,2013-04-21 14:54:00,
2013-04-21 08:59:00,41.1,21.9,30.11,NW,317,6.0,6.0,46,0.00,,,0.00,Wunderground v.1.15,2013-04-21 14:59:00,
2013-04-21 09:09:00,41.4,21.6,30.11,NNW,332,6.0,12.0,45,0.00,,,0.00,Wunderground v.1.15,2013-04-21 15:09:00,
2013-04-21 09:14:00,41.6,21.8,30.11,NNW,331,7.0,12.0,45,0.00,,,0.00,Wunderground v.1.15,2013-04-21 15:14:00,
2013-04-21 09:19:00,41.8,21.5,30.11,NNW,335,6.0,6.0,44,0.00,,,0.00,Wunderground v.1.15,2013-04-21 15:19:00,
2013-04-21 09:24:00,42.2,21.8,30.11,NW,308,6.0,6.0,44,0.00,,,0.00,Wunderground v.1.15,2013-04-21 15:24:00,
2013-04-21 09:34:00,42.9,21.9,30.11,NW,317,5.0,8.0,43,0.00,,,0.00,Wunderground v.1.15,2013-04-21 15:34:00,
2013-04-21 09:39:00,43.1,21.5,30.11,NNW,343,5.0,9.0,42,0.00,,,0.00,Wunderground v.1.15,2013-04-21 15:39:00,
2013-04-21 09:44:00,43.2,21.6,30.11,NW,308,6.0,9.0,42,0.00,,,0.00,Wunderground v.1.15,2013-04-21 15:44:00,
2013-04-21 09:49:00,43.3,21.1,30.11,NNW,328,6.0,6.0,41,0.00,,,0.00,Wunderground v.1.15,2013-04-21 15:49:00,
2013-04-21 09:54:00,43.7,20.9,30.11,WNW,303,6.0,7.0,40,0.00,,,0.00,Wunderground v.1.15,2013-04-21 15:54:00,
2013-04-21 09:59:00,43.8,21.0,30.11,NNW,333,6.0,6.0,40,0.00,,,0.00,Wunderground v.1.15,2013-04-21 15:59:00,
2013-04-21 10:09:00,44.1,20.7,30.11,NNW,344,5.0,6.0,39,0.00,,,0.00,Wunderground v.1.15,2013-04-21 16:09:00,
2013-04-21 10:14:00,45.0,20.9,30.11,NNW,329,5.0,6.0,38,0.00,,,0.00,Wunderground v.1.15,2013-04-21 16:14:00,
2013-04-21 10:19:00,45.1,20.3,30.11,NNW,332,4.0,5.0,37,0.00,,,0.00,Wunderground v.1.15,2013-04-21 16:19:00,
2013-04-21 10:29:00,45.5,20.7,30.11,North,355,5.0,5.0,37,0.00,,,0.00,Wunderground v.1.15,2013-04-21 16:29:00,
2013-04-21 10:34:00,45.6,19.5,30.11,West,265,6.0,6.0,35,0.00,,,0.00,Wunderground v.1.15,2013-04-21 16:34:00,
2013-04-21 10:39:00,45.8,19.7,30.11,NW,310,6.0,6.0,35,0.00,,,0.00,Wunderground v.1.15,2013-04-21 16:39:00,
2013-04-21 10:44:00,46.3,22.0,30.10,NNW,333,3.0,6.0,38,0.00,,,0.00,Wunderground v.1.15,2013-04-21 16:44:00,
2013-04-21 10:54:00,46.8,19.2,30.11,NW,319,4.0,7.0,33,0.00,,,0.00,Wunderground v.1.15,2013-04-21 16:54:00,
2013-04-21 10:59:00,46.4,19.5,30.11,NNW,329,5.0,5.0,34,0.00,,,0.00,Wunderground v.1.15,2013-04-21 16:59:00,
2013-04-21 11:09:00,47.0,18.6,30.11,NNW,327,5.0,5.0,32,0.00,,,0.00,Wunderground v.1.15,2013-04-21 17:09:00,
2013-04-21 11:14:00,47.9,20.8,30.11,NW,313,4.0,5.0,34,0.00,,,0.00,Wunderground v.1.15,2013-04-21 17:14:00,
2013-04-21 11:24:00,48.6,20.0,30.10,NNW,338,4.0,7.0,32,0.00,,,0.00,Wunderground v.1.15,2013-04-21 17:24:00,
2013-04-21 11:29:00,48.7,20.1,30.10,NNW,333,3.0,7.0,32,0.00,,,0.00,Wunderground v.1.15,2013-04-21 17:29:00,
2013-04-21 11:39:00,49.6,21.6,30.10,NNW,329,3.0,3.0,33,0.00,,,0.00,Wunderground v.1.15,2013-04-21 17:39:00,
2013-04-21 11:44:00,49.2,19.8,30.10,NNW,327,4.0,8.0,31,0.00,,,0.00,Wunderground v.1.15,2013-04-21 17:44:00,
2013-04-21 11:49:00,49.2,20.6,30.10,West,281,5.0,5.0,32,0.00,,,0.00,Wunderground v.1.15,2013-04-21 17:49:00,
2013-04-21 11:59:00,49.3,21.4,30.09,NNE,22,4.0,4.0,33,0.00,,,0.00,Wunderground v.1.15,2013-04-21 17:59:00,
2013-04-21 12:09:00,50.1,19.0,30.09,WNW,291,4.0,4.0,29,0.00,,,0.00,Wunderground v.1.15,2013-04-21 18:09:00,
2013-04-21 12:14:00,50.3,20.0,30.10,North,355,5.0,5.0,30,0.00,,,0.00,Wunderground v.1.15,2013-04-21 18:14:00,
2013-04-21 12:19:00,50.2,17.5,30.09,NNW,333,5.0,9.0,27,0.00,,,0.00,Wunderground v.1.15,2013-04-21 18:19:00,
2013-04-21 12:24:00,49.9,17.2,30.09,NNW,336,6.0,9.0,27,0.00,,,0.00,Wunderground v.1.15,2013-04-21 18:24:00,
2013-04-21 12:29:00,50.3,17.5,30.09,NNW,336,6.0,6.0,27,0.00,,,0.00,Wunderground v.1.15,2013-04-21 18:29:00,
2013-04-21 12:39:00,50.9,15.3,30.09,WNW,294,5.0,5.0,24,0.00,,,0.00,Wunderground v.1.15,2013-04-21 18:39:00,
2013-04-21 12:44:00,51.1,19.1,30.08,NNW,336,5.0,5.0,28,0.00,,,0.00,Wunderground v.1.15,2013-04-21 18:44:00,
2013-04-21 12:49:00,50.9,16.3,30.08,NW,323,7.0,8.0,25,0.00,,,0.00,Wunderground v.1.15,2013-04-21 18:49:00,
2013-04-21 12:54:00,51.1,14.5,30.08,West,267,7.0,10.0,23,0.00,,,0.00,Wunderground v.1.15,2013-04-21 18:54:00,
2013-04-21 12:59:00,51.7,15.0,30.08,WNW,293,6.0,7.0,23,0.00,,,0.00,Wunderground v.1.15,2013-04-21 18:59:00,
2013-04-21 13:09:00,52.6,16.8,30.07,NNW,330,5.0,7.0,24,0.00,,,0.00,Wunderground v.1.15,2013-04-21 19:09:00,
2013-04-21 13:19:00,52.0,15.3,30.07,NNW,347,6.0,7.0,23,0.00,,,0.00,Wunderground v.1.15,2013-04-21 19:19:00,
2013-04-21 13:24:00,52.7,14.9,30.07,NNW,327,5.0,7.0,22,0.00,,,0.00,Wunderground v.1.15,2013-04-21 19:24:00,
2013-04-21 13:29:00,53.1,11.9,30.06,NNE,22,4.0,4.0,19,0.00,,,0.00,Wunderground v.1.15,2013-04-21 19:29:00,
2013-04-21 13:39:00,53.1,9.4,30.06,NNW,328,6.0,6.0,17,0.00,,,0.00,Wunderground v.1.15,2013-04-21 19:39:00,
2013-04-21 13:44:00,54.0,11.4,30.06,WNW,286,5.0,6.0,18,0.00,,,0.00,Wunderground v.1.15,2013-04-21 19:44:00,
2013-04-21 13:49:00,53.5,8.3,30.06,NNW,333,4.0,6.0,16,0.00,,,0.00,Wunderground v.1.15,2013-04-21 19:49:00,
2013-04-21 13:54:00,53.2,6.7,30.06,NNW,327,5.0,10.0,15,0.00,,,0.00,Wunderground v.1.15,2013-04-21 19:54:00,
2013-04-21 13:59:00,52.9,3.3,30.05,NNE,26,5.0,5.0,13,0.00,,,0.00,Wunderground v.1.15,2013-04-21 19:59:00,
2013-04-21 14:09:00,53.5,3.8,30.05,NNW,327,6.0,8.0,13,0.00,,,0.00,Wunderground v.1.15,2013-04-21 20:09:00,
2013-04-21 14:14:00,53.4,6.8,30.04,NNW,338,6.0,8.0,15,0.00,,,0.00,Wunderground v.1.15,2013-04-21 20:14:00,
2013-04-21 14:19:00,53.9,4.1,30.04,NNW,331,5.0,9.0,13,0.00,,,0.00,Wunderground v.1.15,2013-04-21 20:19:00,
2013-04-21 14:29:00,54.6,4.6,30.04,North,355,7.0,7.0,13,0.00,,,0.00,Wunderground v.1.15,2013-04-21 20:29:00,
2013-04-21 14:34:00,54.5,4.6,30.04,NNW,332,6.0,7.0,13,0.00,,,0.00,Wunderground v.1.15,2013-04-21 20:34:00,
2013-04-21 14:39:00,54.6,4.6,30.04,West,277,7.0,9.0,13,0.00,,,0.00,Wunderground v.1.15,2013-04-21 20:39:00,
2013-04-21 14:44:00,54.6,7.8,30.04,NW,321,6.0,9.0,15,0.00,,,0.00,Wunderground v.1.15,2013-04-21 20:44:00,
2013-04-21 14:49:00,54.9,6.5,30.05,NNW,340,6.0,6.0,14,0.00,,,0.00,Wunderground v.1.15,2013-04-21 20:49:00,
2013-04-21 14:59:00,54.7,6.3,30.03,NW,326,5.0,5.0,14,0.00,,,0.00,Wunderground v.1.15,2013-04-21 20:59:00,
2013-04-21 15:09:00,55.7,5.5,30.02,NE,35,7.0,7.0,13,0.00,,,0.00,Wunderground v.1.15,2013-04-21 21:09:00,
2013-04-21 15:14:00,55.5,7.0,30.02,NW,321,8.0,8.0,14,0.00,,,0.00,Wunderground v.1.15,2013-04-21 21:14:00,
2013-04-21 15:19:00,55.4,3.5,30.02,WSW,237,8.0,8.0,12,0.00,,,0.00,Wunderground v.1.15,2013-04-21 21:19:00,
2013-04-21 15:24:00,55.5,5.4,30.02,NW,325,8.0,8.0,13,0.00,,,0.00,Wunderground v.1.15,2013-04-21 21:24:00,
2013-04-21 15:29:00,55.4,3.5,30.01,NNW,332,8.0,8.0,12,0.00,,,0.00,Wunderground v.1.15,2013-04-21 21:29:00,
2013-04-21 15:39:00,55.6,8.6,30.01,NW,317,7.0,10.0,15,0.00,,,0.00,Wunderground v.1.15,2013-04-21 21:39:00,
2013-04-21 15:44:00,55.7,5.5,30.00,NNW,342,8.0,13.0,13,0.00,,,0.00,Wunderground v.1.15,2013-04-21 21:44:00,
2013-04-21 15:49:00,56.2,7.5,30.01,NNW,334,8.0,9.0,14,0.00,,,0.00,Wunderground v.1.15,2013-04-21 21:49:00,
2013-04-21 15:54:00,56.7,7.9,30.01,NNW,335,7.0,9.0,14,0.00,,,0.00,Wunderground v.1.15,2013-04-21 21:54:00,
2013-04-21 15:59:00,56.9,8.1,30.01,WNW,303,7.0,8.0,14,0.00,,,0.00,Wunderground v.1.15,2013-04-21 21:59:00,
2013-04-21 16:09:00,56.6,10.9,30.01,NNW,339,8.0,8.0,16,0.00,,,0.00,Wunderground v.1.15,2013-04-21 22:09:00,
2013-04-21 16:14:00,56.1,9.0,30.00,NW,325,7.0,8.0,15,0.00,,,0.00,Wunderground v.1.15,2013-04-21 22:14:00,
2013-04-21 16:19:00,56.0,8.9,30.00,NNW,327,6.0,8.0,15,0.00,,,0.00,Wunderground v.1.15,2013-04-21 22:19:00,
2013-04-21 16:24:00,56.1,9.0,29.99,NNW,342,7.0,8.0,15,0.00,,,0.00,Wunderground v.1.15,2013-04-21 22:24:00,
2013-04-21 16:29:00,56.3,10.6,30.00,NNW,331,7.0,7.0,16,0.00,,,0.00,Wunderground v.1.15,2013-04-21 22:29:00,
2013-04-21 16:39:00,56.1,7.5,29.99,NW,321,8.0,8.0,14,0.00,,,0.00,Wunderground v.1.15,2013-04-21 22:39:00,
2013-04-21 16:49:00,56.0,10.4,29.99,NNW,333,7.0,7.0,16,0.00,,,0.00,Wunderground v.1.15,2013-04-21 22:49:00,
2013-04-21 16:59:00,56.2,5.9,29.98,NNW,328,6.0,9.0,13,0.00,,,0.00,Wunderground v.1.15,2013-04-21 22:59:00,
2013-04-21 17:09:00,56.0,4.0,29.98,WNW,300,7.0,7.0,12,0.00,,,0.00,Wunderground v.1.15,2013-04-21 23:09:00,
2013-04-21 17:19:00,55.8,5.6,29.98,WNW,298,8.0,8.0,13,0.00,,,0.00,Wunderground v.1.15,2013-04-21 23:19:00,
2013-04-21 17:24:00,55.6,5.4,29.98,NW,312,8.0,9.0,13,0.00,,,0.00,Wunderground v.1.15,2013-04-21 23:24:00,
2013-04-21 17:29:00,55.7,5.5,29.98,WNW,282,8.0,8.0,13,0.00,,,0.00,Wunderground v.1.15,2013-04-21 23:29:00,
2013-04-21 17:34:00,55.5,7.0,29.98,NNW,327,8.0,8.0,14,0.00,,,0.00,Wunderground v.1.15,2013-04-21 23:34:00,
2013-04-21 17:44:00,55.7,5.5,29.98,NNW,331,8.0,13.0,13,0.00,,,0.00,Wunderground v.1.15,2013-04-21 23:44:00,
2013-04-21 17:49:00,55.5,5.4,29.98,WNW,296,8.0,8.0,13,0.00,,,0.00,Wunderground v.1.15,2013-04-21 23:49:00,
2013-04-21 17:54:00,55.5,5.4,29.98,NNW,341,7.0,8.0,13,0.00,,,0.00,Wunderground v.1.15,2013-04-21 23:54:00,
2013-04-21 17:59:00,55.5,5.4,29.98,NNW,333,6.0,6.0,13,0.00,,,0.00,Wunderground v.1.15,2013-04-21 23:59:00,
2013-04-21 18:09:00,55.2,5.1,29.98,West,271,6.0,11.0,13,0.00,,,0.00,Wunderground v.1.15,2013-04-22 00:09:00,
2013-04-21 18:14:00,54.9,4.9,29.98,WNW,303,6.0,11.0,13,0.00,,,0.00,Wunderground v.1.15,2013-04-22 00:14:00,
2013-04-21 18:19:00,54.8,4.8,29.98,NNE,13,7.0,7.0,13,0.00,,,0.00,Wunderground v.1.15,2013-04-22 00:19:00,
2013-04-21 18:24:00,54.6,4.6,29.98,NNW,329,7.0,7.0,13,0.00,,,0.00,Wunderground v.1.15,2013-04-22 00:24:00,
2013-04-21 18:34:00,54.2,7.5,29.98,NW,322,5.0,7.0,15,0.00,,,0.00,Wunderground v.1.15,2013-04-22 00:34:00,
2013-04-21 18:44:00,53.8,7.1,29.99,NNW,340,4.0,7.0,15,0.00,,,0.00,Wunderground v.1.15,2013-04-22 00:44:00,
2013-04-21 18:49:00,53.7,5.5,29.99,NW,306,6.0,6.0,14,0.00,,,0.00,Wunderground v.1.15,2013-04-22 00:49:00,
2013-04-21 18:54:00,53.4,5.3,29.99,NW,321,6.0,11.0,14,0.00,,,0.00,Wunderground v.1.15,2013-04-22 00:54:00,
2013-04-21 18:59:00,53.2,5.1,29.99,NNW,345,6.0,6.0,14,0.00,,,0.00,Wunderground v.1.15,2013-04-22 00:59:00,
2013-04-21 19:09:00,52.8,4.8,29.99,NW,320,7.0,7.0,14,0.00,,,0.00,Wunderground v.1.15,2013-04-22 01:09:00,
2013-04-21 19:14:00,52.6,6.2,29.99,NNW,327,7.0,8.0,15,0.00,,,0.00,Wunderground v.1.15,2013-04-22 01:14:00,
2013-04-21 19:19:00,52.3,5.9,30.00,North,351,6.0,6.0,15,0.00,,,0.00,Wunderground v.1.15,2013-04-22 01:19:00,
2013-04-21 19:24:00,52.0,5.7,29.99,NNW,342,5.0,6.0,15,0.00,,,0.00,Wunderground v.1.15,2013-04-22 01:24:00,
2013-04-21 19:29:00,51.8,5.5,30.00,NNW,333,4.0,4.0,15,0.00,,,0.00,Wunderground v.1.15,2013-04-22 01:29:00,
2013-04-21 19:39:00,51.1,6.4,30.00,NW,304,3.0,3.0,16,0.00,,,0.00,Wunderground v.1.15,2013-04-22 01:39:00,
2013-04-21 19:44:00,50.8,4.7,30.00,NNW,348,3.0,3.0,15,0.00,,,0.00,Wunderground v.1.15,2013-04-22 01:44:00,
2013-04-21 19:54:00,50.6,4.6,30.00,NW,309,4.0,4.0,15,0.00,,,0.00,Wunderground v.1.15,2013-04-22 01:54:00,
2013-04-21 19:59:00,50.3,4.3,30.01,WNW,296,4.0,5.0,15,0.00,,,0.00,Wunderground v.1.15,2013-04-22 01:59:00,
2013-04-21 20:09:00,50.1,4.2,30.02,NNW,333,5.0,5.0,15,0.00,,,0.00,Wunderground v.1.15,2013-04-22 02:09:00,
2013-04-21 20:14:00,49.8,5.3,30.02,NNW,329,4.0,5.0,16,0.00,,,0.00,Wunderground v.1.15,2013-04-22 02:14:00,
2013-04-21 20:19:00,49.5,6.4,30.02,NNW,331,3.0,4.0,17,0.00,,,0.00,Wunderground v.1.15,2013-04-22 02:19:00,
2013-04-21 20:24:00,48.7,7.0,30.02,NNW,327,2.0,4.0,18,0.00,,,0.00,Wunderground v.1.15,2013-04-22 02:24:00,
2013-04-21 20:29:00,48.6,6.9,30.02,NW,322,2.0,5.0,18,0.00,,,0.00,Wunderground v.1.15,2013-04-22 02:29:00,
2013-04-21 20:39:00,47.3,7.0,30.02,WNW,294,2.0,2.0,19,0.00,,,0.00,Wunderground v.1.15,2013-04-22 02:39:00,
2013-04-21 20:44:00,46.5,9.6,30.02,WNW,294,1.0,2.0,22,0.00,,,0.00,Wunderground v.1.15,2013-04-22 02:44:00,
2013-04-21 20:49:00,45.5,11.7,30.03,West,278,1.0,1.0,25,0.00,,,0.00,Wunderground v.1.15,2013-04-22 02:49:00,
2013-04-21 20:54:00,44.3,15.5,30.03,West,278,0.0,1.0,31,0.00,,,0.00,Wunderground v.1.15,2013-04-22 02:54:00,
2013-04-21 20:59:00,42.9,14.3,30.03,West,278,0.0,0.0,31,0.00,,,0.00,Wunderground v.1.15,2013-04-22 02:59:00,
2013-04-21 21:09:00,41.3,15.0,30.03,West,278,0.0,0.0,34,0.00,,,0.00,Wunderground v.1.15,2013-04-22 03:09:00,
2013-04-21 21:14:00,40.9,14.0,30.04,West,278,0.0,0.0,33,0.00,,,0.00,Wunderground v.1.15,2013-04-22 03:14:00,
2013-04-21 21:19:00,40.6,14.4,30.04,West,278,0.0,0.0,34,0.00,,,0.00,Wunderground v.1.15,2013-04-22 03:19:00,
2013-04-21 21:24:00,39.8,16.8,30.03,West,278,0.0,0.0,39,0.00,,,0.00,Wunderground v.1.15,2013-04-22 03:24:00,
2013-04-21 21:29:00,39.6,15.4,30.04,West,274,1.0,1.0,37,0.00,,,0.00,Wunderground v.1.15,2013-04-22 03:29:00,
2013-04-21 21:34:00,39.3,14.5,30.03,West,274,0.0,1.0,36,0.00,,,0.00,Wunderground v.1.15,2013-04-22 03:34:00,
2013-04-21 21:39:00,39.0,16.7,30.03,West,274,0.0,0.0,40,0.00,,,0.00,Wunderground v.1.15,2013-04-22 03:39:00,
2013-04-21 21:49:00,38.1,16.4,30.03,West,274,0.0,0.0,41,0.00,,,0.00,Wunderground v.1.15,2013-04-22 03:49:00,
2013-04-21 21:54:00,37.9,16.3,30.04,West,274,0.0,0.0,41,0.00,,,0.00,Wunderground v.1.15,2013-04-22 03:54:00,
2013-04-21 21:59:00,37.5,17.5,30.04,West,274,0.0,0.0,44,0.00,,,0.00,Wunderground v.1.15,2013-04-22 03:59:00,
2013-04-21 22:04:00,37.1,16.1,30.04,West,274,0.0,0.0,42,0.00,,,0.00,Wunderground v.1.15,2013-04-22 04:04:00,
2013-04-21 22:09:00,36.7,16.8,30.04,West,274,0.0,0.0,44,0.00,,,0.00,Wunderground v.1.15,2013-04-22 04:09:00,
2013-04-21 22:14:00,36.5,16.6,30.04,West,274,0.0,0.0,44,0.00,,,0.00,Wunderground v.1.15,2013-04-22 04:14:00,
2013-04-21 22:24:00,35.9,17.1,30.05,West,274,0.0,0.0,46,0.00,,,0.00,Wunderground v.1.15,2013-04-22 04:24:00,
2013-04-21 22:29:00,35.6,17.8,30.05,West,274,0.0,0.0,48,0.00,,,0.00,Wunderground v.1.15,2013-04-22 04:29:00,
2013-04-21 22:34:00,35.3,18.0,30.04,West,274,0.0,0.0,49,0.00,,,0.00,Wunderground v.1.15,2013-04-22 04:34:00,
2013-04-21 22:39:00,35.1,18.3,30.04,West,274,0.0,0.0,50,0.00,,,0.00,Wunderground v.1.15,2013-04-22 04:39:00,
2013-04-21 22:44:00,34.9,17.2,30.03,West,274,0.0,0.0,48,0.00,,,0.00,Wunderground v.1.15,2013-04-22 04:44:00,
2013-04-21 22:49:00,34.6,16.9,30.03,West,274,0.0,0.0,48,0.00,,,0.00,Wunderground v.1.15,2013-04-22 04:49:00,
2013-04-21 22:54:00,34.4,16.7,30.03,West,274,0.0,1.0,48,0.00,,,0.00,Wunderground v.1.15,2013-04-22 04:54:00,
2013-04-21 22:59:00,34.4,18.1,30.03,West,274,1.0,1.0,51,0.00,,,0.00,Wunderground v.1.15,2013-04-22 04:59:00,
2013-04-21 23:09:00,34.7,17.9,30.02,NNE,16,1.0,2.0,50,0.00,,,0.00,Wunderground v.1.15,2013-04-22 05:09:00,
2013-04-21 23:14:00,34.7,18.4,30.02,North,5,0.0,2.0,51,0.00,,,0.00,Wunderground v.1.15,2013-04-22 05:14:00,
2013-04-21 23:19:00,34.5,18.2,30.02,North,5,0.0,0.0,51,0.00,,,0.00,Wunderground v.1.15,2013-04-22 05:19:00,
2013-04-21 23:24:00,34.5,18.7,30.02,SSE,154,1.0,1.0,52,0.00,,,0.00,Wunderground v.1.15,2013-04-22 05:24:00,
2013-04-21 23:29:00,34.9,18.1,30.02,SE,129,1.0,1.0,50,0.00,,,0.00,Wunderground v.1.15,2013-04-22 05:29:00,
2013-04-21 23:39:00,35.2,18.4,30.01,SSE,165,0.0,2.0,50,0.00,,,0.00,Wunderground v.1.15,2013-04-22 05:39:00,
2013-04-21 23:49:00,35.1,18.3,30.02,SSE,164,1.0,1.0,50,0.00,,,0.00,Wunderground v.1.15,2013-04-22 05:49:00,
2013-04-21 23:54:00,34.8,18.5,30.02,SSE,164,1.0,1.0,51,0.00,,,0.00,Wunderground v.1.15,2013-04-22 05:54:00,
2013-04-21 23:59:00,34.8,18.5,30.01,SSE,164,0.0,0.0,51,0.00,,,0.00,Wunderground v.1.15,2013-04-22 05:59:00,